Tracking 30261 objects as of 18-Feb-2025
HD Live streaming from Space Station
objects crossing your sky now

COSMOS 1651 (GLONASS)

Track COSMOS 1651 (GLONASS) now!
COSMOS 1651 (GLONASS) is classified as:


NORAD ID: 15698
Int'l Code: 1985-037B
Perigee: 19,098.2 km
Apogee: 19,172.4 km
Inclination: 64.6 °
Period: 675.7 minutes
Semi major axis: 25506 km
RCS: 1.6087 m2 (large)
Launch date: May 17, 1985
Source: Commonwealth of Independent States (former USSR) (CIS)
Launch site: TYURATAM MISSILE AND SPACE COMPLEX (TTMTR)
Your satellite tracking list
Your tracking list is empty




NASA's NSSDC Master Catalog

Two Line Element Set (TLE):
1 15698U 85037B   25048.22999311 -.00000001  00000-0  00000-0 0  9999
2 15698  64.6072  89.4879 0014548  21.7396  40.9000  2.13123199309456
Source of the keplerian elements: AFSPC